Погода в Пицунде

Абхазия     43°09′34″N   40°20′19″E
темп.,
°C
ветер,
м/с
пор.,
м/с
влажн.,
%
обл.,
%
осадки,
мм/ч
давл.,
гПа
погр.,
м
2 марта, вт
вт200:00+4всв336539 0.0 1028113
03:00+4всв336033 0.0 1029136
06:00+4всв336467 0.0 1029127
09:00+5вюв236056 0.0 1029341
12:00+6ююв346737 0.1 1028509
15:00+6ю227133 0.2 1027484
18:00+5ссз007228 0.1 1027271
21:00+5св216716 0.1 1027200
3 марта, ср
ср300:00+4всв33620 0.0 1026146
03:00+4всв33610 0.0 1025183
06:00+4в346895 0.1 1024249
09:00+3в459498 4.8 1023289
12:00+4в3389100 2.1 1022339
15:00+3в3495100 6.9 1022254
18:00+3всв1293100 2.9 1023170
21:00+4зсз238889 3.1 1026349
4 марта, чт
чт400:00+4сз127595 0.1 1027314
03:00+3св226969 0.1 102897
06:00+3всв336711 0.0 1028207
09:00+4вюв346911 0.1 1028459
12:00+5ююв567740 0.2 1027806
15:00+5ююз336739 0.4 1025662
18:00+4сз116932 0.1 1024199
21:00+4всв226618 0.1 1024119
5 марта, пт
пт500:00+4св43590 0.0 102397
03:00+4св43520 0.0 102283
06:00+5св33550 0.0 102169
09:00+6вюв22540 0.0 1021200
12:00+7ююв34600 0.0 1020339
15:00+8юв45650 0.0 1020377
18:00+7вюв45693 0.0 1020254
21:00+7всв56601 0.0 1021129
6 марта, сб
сб600:00+7всв56524 0.0 1020128
03:00+7всв56495 0.0 1019118
06:00+8в564812 0.0 1018113
09:00+9в455329 0.0 101784
12:00+11вюв455471 0.0 101685
15:00+11юв335686 0.0 101573
18:00+9ссв1262100 0.0 101522
21:00+9с2359100 0.1 101648